| time (UTC) | temp F | wind direction | speed MPH | gust MPH | rain 1hr in | rain 24hr in | rain mn in | humidity % | barometer mb |
| 20260906220046 | 62 | 264 | 3.0 | 6.0 | 0.00 | 0.27 | 0.27 | 82 | 1017.8 |
| 20260906214552 | 62 | 284 | 2.0 | 3.0 | 0.00 | 0.27 | 0.27 | 84 | 1017.7 |
| 20260906213055 | 61 | 262 | 1.0 | 4.0 | 0.00 | 0.27 | 0.27 | 87 | 1017.8 |
| 20260906211548 | 61 | 289 | 2.0 | 3.0 | 0.00 | 0.27 | 0.27 | 89 | 1017.7 |
| 20260906210052 | 60 | 281 | 2.0 | 4.0 | 0.00 | 0.27 | 0.27 | 91 | 1017.7 |
| 20260906204604 | 60 | 280 | 0.0 | 2.0 | 0.00 | 0.28 | 0.27 | 95 | 1017.6 |
| 20260906203047 | 59 | 0 | 0.0 | 0.0 | 0.00 | 0.28 | 0.27 | 95 | 1017.7 |
| 20260906201612 | 59 | 0 | 0.0 | 0.0 | 0.00 | 0.28 | 0.27 | 95 | 1017.7 |
| 20260906200053 | 59 | 0 | 0.0 | 1.0 | 0.00 | 0.28 | 0.27 | 95 | 1017.6 |
| 20260906194600 | 59 | 146 | 0.0 | 1.0 | 0.00 | 0.29 | 0.27 | 96 | 1017.5 |
| 20260906193049 | 58 | 0 | 0.0 | 0.0 | 0.00 | 0.29 | 0.27 | 96 | 1017.4 |
| 20260906191544 | 57 | 0 | 0.0 | 2.0 | 0.00 | 0.29 | 0.27 | 95 | 1017.3 |
| 20260906190050 | 57 | 0 | 0.0 | 1.0 | 0.00 | 0.29 | 0.27 | 96 | 1017.3 |
| 20260906184549 | 56 | 297 | 1.0 | 4.0 | 0.01 | 0.29 | 0.27 | 95 | 1017.4 |
| 20260906183056 | 56 | 319 | 3.0 | 6.0 | 0.01 | 0.28 | 0.26 | 96 | 1017.2 |
| 20260906181557 | 56 | 285 | 3.0 | 6.0 | 0.02 | 0.28 | 0.26 | 96 | 1017.2 |
| 20260906180050 | 55 | 284 | 3.0 | 7.0 | 0.02 | 0.28 | 0.26 | 97 | 1017.2 |
| 20260906174604 | 55 | 290 | 1.0 | 3.0 | 0.02 | 0.27 | 0.25 | 97 | 1017.0 |
| 20260906173048 | 55 | 287 | 3.0 | 8.0 | 0.02 | 0.26 | 0.25 | 97 | 1017.0 |
| 20260906171550 | 54 | 309 | 3.0 | 6.0 | 0.01 | 0.25 | 0.24 | 97 | 1017.0 |
| 20260906170048 | 55 | 286 | 1.0 | 5.0 | 0.01 | 0.25 | 0.23 | 97 | 1017.2 |
| 20260906164549 | 55 | 327 | 0.0 | 0.0 | 0.03 | 0.25 | 0.23 | 97 | 1017.2 |
| 20260906163055 | 54 | 0 | 1.0 | 5.0 | 0.07 | 0.24 | 0.22 | 97 | 1017.0 |
| 20260906161551 | 54 | 0 | 0.0 | 1.0 | 0.10 | 0.24 | 0.22 | 97 | 1017.1 |
| 20260906160052 | 54 | 304 | 0.0 | 1.0 | 0.10 | 0.23 | 0.22 | 97 | 1017.1 |
| 20260906154547 | 54 | 0 | 0.0 | 0.0 | 0.08 | 0.21 | 0.19 | 97 | 1017.2 |
| 20260906153106 | 54 | 295 | 0.0 | 1.0 | 0.05 | 0.17 | 0.15 | 97 | 1017.1 |
| 20260906151550 | 54 | 0 | 0.0 | 0.0 | 0.02 | 0.14 | 0.12 | 97 | 1017.0 |
| 20260906150048 | 54 | 0 | 0.0 | 0.0 | 0.01 | 0.13 | 0.11 | 96 | 1016.6 |
| 20260906144600 | 53 | 0 | 0.0 | 1.0 | 0.00 | 0.12 | 0.11 | 96 | 1016.5 |
| 20260906143055 | 53 | 0 | 0.0 | 1.0 | 0.00 | 0.11 | 0.10 | 96 | 1016.3 |
| 20260906141547 | 53 | 0 | 0.0 | 1.0 | 0.00 | 0.11 | 0.10 | 96 | 1016.2 |
| 20260906140050 | 53 | 0 | 0.0 | 0.0 | 0.02 | 0.11 | 0.10 | 96 | 1015.9 |
| 20260906134601 | 53 | 0 | 0.0 | 1.0 | 0.02 | 0.11 | 0.10 | 96 | 1015.8 |
| 20260906133054 | 54 | 0 | 0.0 | 1.0 | 0.03 | 0.11 | 0.10 | 96 | 1015.7 |
| 20260906131549 | 54 | 0 | 0.0 | 1.0 | 0.03 | 0.11 | 0.10 | 96 | 1015.7 |
| 20260906124600 | 53 | 307 | 0.0 | 3.0 | 0.04 | 0.09 | 0.07 | 96 | 1015.8 |
| 20260906123050 | 53 | 301 | 0.0 | 1.0 | 0.05 | 0.08 | 0.07 | 95 | 1016.0 |
| 20260906121550 | 54 | 0 | 0.0 | 2.0 | 0.07 | 0.08 | 0.07 | 95 | 1015.8 |
| 20260906120052 | 54 | 0 | 0.0 | 0.0 | 0.05 | 0.07 | 0.05 | 95 | 1015.9 |
| 20260906114554 | 54 | 0 | 0.0 | 2.0 | 0.03 | 0.04 | 0.03 | 95 | 1015.7 |
| 20260906113048 | 53 | 302 | 1.0 | 3.0 | 0.01 | 0.03 | 0.01 | 94 | 1015.8 |
| 20260906111619 | 54 | 0 | 0.0 | 1.0 | 0.00 | 0.01 | 0.00 | 94 | 1015.8 |
| 20260906110049 | 54 | 0 | 0.0 | 0.0 | 0.00 | 0.01 | 0.00 | 93 | 1015.6 |
| 20260906104550 | 54 | 0 | 0.0 | 0.0 | 0.00 | 0.01 | 0.00 | 92 | 1015.5 |
| 20260906103048 | 54 | 0 | 0.0 | 0.0 | 0.00 | 0.01 | 0.00 | 92 | 1015.6 |
| 20260906101546 | 55 | 0 | 0.0 | 1.0 | 0.00 | 0.01 | 0.00 | 92 | 1015.6 |
| 20260906100049 | 55 | 0 | 2.0 | 7.0 | 0.00 | 0.01 | 0.00 | 92 | 1015.6 |
| 20260906094550 | 55 | 288 | 1.0 | 5.0 | 0.00 | 0.01 | 0.00 | 92 | 1015.6 |
| 20260906093059 | 55 | 281 | 0.0 | 2.0 | 0.00 | 0.01 | 0.00 | 92 | 1015.6 |
| 20260906091543 | 55 | 312 | 0.0 | 4.0 | 0.00 | 0.01 | 0.00 | 92 | 1015.5 |
| 20260906090204 | 55 | 286 | 1.0 | 6.0 | 0.00 | 0.01 | 0.00 | 93 | 1015.5 |
| 20260906084556 | 55 | 291 | 1.0 | 3.0 | 0.00 | 0.07 | 0.00 | 93 | 1015.7 |
| 20260906083048 | 54 | 295 | 1.0 | 4.0 | 0.00 | 0.07 | 0.00 | 94 | 1015.7 |
| 20260906081551 | 54 | 280 | 1.0 | 4.0 | 0.00 | 0.07 | 0.00 | 94 | 1015.8 |
| 20260906080055 | 54 | 309 | 1.0 | 3.0 | 0.00 | 0.07 | 0.00 | 94 | 1015.7 |
| 20260906074549 | 55 | 295 | 1.0 | 3.0 | 0.00 | 0.08 | 0.00 | 94 | 1015.8 |
| 20260906073057 | 55 | 0 | 0.0 | 1.0 | 0.00 | 0.08 | 0.00 | 94 | 1015.9 |
| 20260906071554 | 55 | 0 | 0.0 | 1.0 | 0.00 | 0.08 | 0.00 | 94 | 1016.0 |
| 20260906070105 | 55 | 0 | 0.0 | 1.0 | 0.00 | 0.08 | 0.00 | 92 | 1016.0 |
| 20260906064548 | 56 | 299 | 0.0 | 0.0 | 0.00 | 0.08 | 0.08 | 93 | 1016.0 |
| 20260906063050 | 56 | 300 | 1.0 | 4.0 | 0.00 | 0.08 | 0.08 | 92 | 1015.9 |
| 20260906061602 | 56 | 295 | 1.0 | 4.0 | 0.00 | 0.08 | 0.08 | 92 | 1016.0 |
| 20260906060048 | 56 | 307 | 1.0 | 3.0 | 0.00 | 0.08 | 0.08 | 92 | 1016.2 |
| 20260906054552 | 56 | 283 | 0.0 | 3.0 | 0.00 | 0.08 | 0.08 | 92 | 1016.2 |
| 20260906053053 | 57 | 301 | 0.0 | 2.0 | 0.00 | 0.08 | 0.08 | 92 | 1016.3 |
| 20260906051547 | 57 | 0 | 1.0 | 3.0 | 0.00 | 0.08 | 0.08 | 92 | 1016.4 |
| 20260906050105 | 57 | 290 | 2.0 | 5.0 | 0.00 | 0.08 | 0.08 | 92 | 1016.4 |
| 20260906044551 | 57 | 302 | 0.0 | 1.0 | 0.00 | 0.08 | 0.08 | 92 | 1016.5 |
| 20260906043104 | 57 | 306 | 0.0 | 4.0 | 0.00 | 0.08 | 0.08 | 91 | 1016.5 |
| 20260906041548 | 58 | 301 | 0.0 | 1.0 | 0.00 | 0.08 | 0.08 | 91 | 1016.5 |
| 20260906040111 | 58 | 0 | 0.0 | 3.0 | 0.00 | 0.08 | 0.08 | 90 | 1016.5 |
| 20260906034551 | 58 | 285 | 0.0 | 3.0 | 0.00 | 0.08 | 0.08 | 89 | 1016.4 |
| 20260906033052 | 59 | 307 | 1.0 | 5.0 | 0.00 | 0.08 | 0.08 | 89 | 1016.5 |
| 20260906031542 | 59 | 304 | 3.0 | 8.0 | 0.00 | 0.08 | 0.08 | 88 | 1016.2 |
| 20260906030048 | 59 | 287 | 3.0 | 8.0 | 0.00 | 0.08 | 0.08 | 87 | 1016.2 |
| 20260906024549 | 60 | 281 | 3.0 | 7.0 | 0.00 | 0.08 | 0.08 | 86 | 1016.3 |
| 20260906023105 | 60 | 318 | 3.0 | 6.0 | 0.00 | 0.08 | 0.08 | 86 | 1016.3 |
| 20260906021551 | 60 | 305 | 2.0 | 5.0 | 0.00 | 0.08 | 0.08 | 86 | 1016.3 |
| 20260906020050 | 61 | 308 | 2.0 | 7.0 | 0.00 | 0.08 | 0.08 | 85 | 1016.3 |
| 20260906014557 | 61 | 0 | 2.0 | 6.0 | 0.00 | 0.28 | 0.08 | 84 | 1016.2 |
| 20260906013049 | 61 | 0 | 1.0 | 5.0 | 0.00 | 0.28 | 0.08 | 83 | 1016.3 |
| 20260906011554 | 62 | 277 | 2.0 | 7.0 | 0.00 | 0.28 | 0.08 | 80 | 1016.2 |
| 20260906010050 | 62 | 276 | 2.0 | 5.0 | 0.00 | 0.28 | 0.08 | 80 | 1016.0 |
| 20260906004604 | 62 | 281 | 2.0 | 3.0 | 0.00 | 0.73 | 0.08 | 80 | 1016.0 |
| 20260906003100 | 62 | 286 | 0.0 | 4.0 | 0.00 | 0.73 | 0.08 | 80 | 1016.2 |
| 20260906001547 | 62 | 284 | 1.0 | 5.0 | 0.00 | 0.73 | 0.08 | 80 | 1016.3 |
| 20260906000104 | 62 | 283 | 2.0 | 4.0 | 0.00 | 0.73 | 0.08 | 79 | 1016.4 |
| 20260905234556 | 63 | 277 | 2.0 | 2.0 | 0.00 | 0.74 | 0.08 | 79 | 1016.4 |
| 20260905233053 | 64 | 0 | 1.0 | 2.0 | 0.00 | 0.74 | 0.08 | 78 | 1016.3 |
| 20260905231548 | 64 | 266 | 1.0 | 7.0 | 0.00 | 0.74 | 0.08 | 80 | 1016.4 |
| 20260905230052 | 63 | 311 | 2.0 | 4.0 | 0.00 | 0.74 | 0.08 | 81 | 1016.3 |
| 20260905224602 | 62 | 0 | 0.0 | 1.0 | 0.00 | 0.74 | 0.08 | 84 | 1016.7 |
| 20260905223049 | 62 | 0 | 0.0 | 2.0 | 0.00 | 0.74 | 0.08 | 85 | 1016.8 |
| 20260905221553 | 62 | 0 | 0.0 | 0.0 | 0.00 | 0.74 | 0.08 | 85 | 1016.9 |